CZ-6A DEB, 56249

Orbit data source: Space-Track

CZ-6A DEB, 56249 is space debris in SSO originally from a launch on Fri, 11 Nov 2022 UTC launched from the Taiyaun Space Center, China (TSC). Debris objects in space refer to the collection of defunct objects orbiting the Earth. Examples of debris include non-operational satellites, rocket bodies, and fragments generated from explosions, collisions, or faulty payload assembly.

Loading next visibility...
Identifier
56249, 2022-151ABR
Orbit
SSO
Country
Flag of CNCN / PRC
Related business
Manufacturer
SAST
Mission
Spacecraft
Bus & Motor
Unknown
Mass
Unknown
Launch date (UTC)
2022-11-11 (4 years ago)
Launch vehicle
Unknown
Launch site
Taiyaun Space Center, China (TSC)
Object type
Payload
Rocket body
Debris
Shape & HBR
Unknown shape, 0.1 m
Radar Cross Section
Small (<0.1 m²)

Expand to show TLE details & history
Last TLE update: 18 hours ago

TLE from 18 hours ago
0 CZ-6A DEB
1 56249U 22151ABR 26236.03365494  .00001001  00000-0  43736-3 0  9998
2 56249  98.7636 256.9154 0046723 140.9263 219.5306 14.25481456184263
Epoch: 2026-08-24T00:48Z
TLE epoch observation values (Epoch: 2026-08-24T00:48:27.786Z)
Latitude
-0.00008°
Longitude
-87.52153°
Altitude
835.756 km
Speed
7.422 km/s
True Right ascension
17h 07m 39s
True Declination
0° 00' 00"
Sunlit
Object was in daylight at epoch
Visualization orbit readout
Latitude
Unknown
Longitude
Unknown
Altitude
Unknown
Speed
Unknown
Apparent Right ascension
Unknown
Apparent Declination
Unknown
Sunlit
N/A
Visualization observer readout
Local Sidereal Time
10:15:52
Azimuth
Unknown
Elevation
Unknown
Doppler factor
Unknown
Orbital elements
Apogee altitude
837.585 km
Perigee altitude
770.471 km
Semi-major axis
7,182.165 km
Eccentricity
0.00467
Inclination
98.7636°
RAAN
256.9154°
Arg. of periapsis
140.9263°
True anomaly
219.19135°
Mean anomaly
219.5306°
Eccentric anomaly
219.36082°
Mean motion
3.56583 °/min
Orbital period
100.96 mins
BSTAR
0.00043736
Loading maneuver chart data...
Computing Atmospheric mass density...

Documentation

Showing up to 5 results
|